Tracking 19177 objects as of 24-May-2018
HD Live streaming from Space Station
objects crossing your sky now

NOAA 16 DEB

Track NOAA 16 DEB now!
10-day predictions


NORAD ID: 41503
Int'l Code: 2000-055MB
Perigee: 803.0 km
Apogee: 857.6 km
Inclination: 98.8 °
Period: 101.4 minutes
Semi major axis: 7201 km
RCS: Unknown
Launch date: September 21, 2000
Source: United States (US)
Launch site: AIR FORCE WESTERN TEST RANGE (AFWTR)

Note: This is SATELLITE DEBRIS
aabbcc
Your satellite tracking list
Your tracking list is empty




NASA's NSSDC Master Catalog

Two Line Element Set (TLE):
1 41503U 00055MB  18143.00895250  .00000760  00000-0  37084-3 0  9997
2 41503  98.8054 222.3442 0037942  53.3605 307.1050 14.20646569114606
Source of the keplerian elements: AFSPC